TimeCST,TemperatureF,Dew PointF,Humidity,Sea Level PressureIn,VisibilityMPH,Wind Direction,Wind SpeedMPH,Gust SpeedMPH,PrecipitationIn,Events,Conditions,WindDirDegrees,DateUTC
12:53 AM,46.9,35.1,63,29.80,10.0,SSW,19.6,31.1,N/A,,Clear,210,2013-11-09 06:53:00
1:53 AM,44.1,35.1,71,29.80,10.0,SSW,12.7,-,N/A,,Clear,210,2013-11-09 07:53:00
2:53 AM,43.0,36.0,76,29.81,10.0,SW,12.7,-,N/A,,Clear,220,2013-11-09 08:53:00
3:53 AM,39.0,35.1,86,29.82,10.0,WSW,9.2,-,N/A,,Clear,240,2013-11-09 09:53:00
4:46 AM,42.8,37.4,81,29.82,10.0,WSW,10.4,-,N/A,,Mostly Cloudy,240,2013-11-09 10:46:00
4:53 AM,44.1,37.9,79,29.85,10.0,WSW,15.0,19.6,N/A,,Overcast,250,2013-11-09 10:53:00
5:40 AM,44.6,37.4,76,29.84,10.0,West,17.3,24.2,N/A,,Scattered Clouds,270,2013-11-09 11:40:00
5:53 AM,45.0,37.9,76,29.86,10.0,West,13.8,-,N/A,,Clear,270,2013-11-09 11:53:00
6:53 AM,41.0,37.0,86,29.87,10.0,WSW,8.1,-,N/A,,Clear,250,2013-11-09 12:53:00
7:53 AM,44.1,37.0,76,29.91,10.0,West,12.7,-,N/A,,Clear,260,2013-11-09 13:53:00
8:53 AM,46.9,37.0,68,29.91,10.0,West,13.8,-,N/A,,Clear,260,2013-11-09 14:53:00
9:53 AM,48.0,37.0,66,29.92,10.0,West,13.8,-,N/A,,Mostly Cloudy,270,2013-11-09 15:53:00
10:53 AM,48.9,37.9,66,29.95,10.0,West,16.1,-,N/A,,Overcast,280,2013-11-09 16:53:00
11:53 AM,51.1,39.0,63,29.95,10.0,West,19.6,27.6,N/A,,Clear,280,2013-11-09 17:53:00
12:53 PM,51.1,37.9,61,29.96,10.0,WNW,25.3,33.4,N/A,,Mostly Cloudy,290,2013-11-09 18:53:00
1:53 PM,51.1,37.9,61,29.98,10.0,West,21.9,28.8,N/A,,Mostly Cloudy,280,2013-11-09 19:53:00
2:53 PM,50.0,36.0,59,29.99,10.0,West,24.2,32.2,N/A,,Clear,280,2013-11-09 20:53:00
3:53 PM,50.0,36.0,59,30.02,10.0,West,18.4,32.2,N/A,,Clear,280,2013-11-09 21:53:00
4:53 PM,48.0,36.0,63,30.05,10.0,West,19.6,26.5,N/A,,Partly Cloudy,280,2013-11-09 22:53:00
5:53 PM,46.0,36.0,68,30.08,10.0,WNW,12.7,-,N/A,,Mostly Cloudy,290,2013-11-09 23:53:00
6:53 PM,45.0,34.0,65,30.11,10.0,NW,16.1,-,N/A,,Mostly Cloudy,310,2013-11-10 00:53:00
7:53 PM,42.1,33.1,70,30.14,10.0,NW,16.1,-,N/A,,Partly Cloudy,310,2013-11-10 01:53:00
8:53 PM,39.0,28.9,67,30.16,10.0,WNW,12.7,-,N/A,,Scattered Clouds,300,2013-11-10 02:53:00
9:53 PM,37.9,28.0,68,30.18,10.0,WNW,10.4,-,N/A,,Clear,290,2013-11-10 03:53:00
10:53 PM,36.0,28.9,76,30.19,10.0,WNW,11.5,-,N/A,,Clear,290,2013-11-10 04:53:00
11:53 PM,35.1,28.0,76,30.20,10.0,WNW,13.8,-,N/A,,Clear,290,2013-11-10 05:53:00